Hourly Data Report for June 04, 2021

ST-JOVITE
QUEBEC
Current Station Operator: ECCC - MSC

46°04'49.000" N
74°33'21.000" W
238.50 m
703GDKB
71376
WJT

Download Data

Hourly Data (June 2021)
Hourly Data Report for June 4, 2021
TIME
LST
Temp Definition
°C
Dew Point Definition
°C
Rel Hum Definition
%
Precip. Amount Definition
mm

Wind Dir Definition
10's deg

Wind Spd Definition
km/h
Visibility Definition
km
Stn Press Definition
kPa
Hmdx Definition


Wind Chill Definition


Weather Definition


00:00 12.3 12.3 100 0.0   0   98.13     LegendNANA
01:00 13.5 13.5 100 0.0 0 1   98.12     LegendNANA
02:00 13.9 13.9 100 0.0   0   98.10     LegendNANA
03:00 14.1 14.1 100 0.0   0   98.10     LegendNANA
04:00 13.8 13.8 100 0.0   0   98.11     LegendNANA
05:00 13.8 13.7 100 0.0   0   98.13     LegendNANA
06:00 14.4 14.4 100 0.0   0   98.16     LegendNANA
07:00 15.9 15.8 99 0.0 20 2   98.20     LegendNANA
08:00 17.1 15.8 92 0.0 23 5   98.21     LegendNANA
09:00 18.9 16.6 86 0.0 26 5   98.18     LegendNANA
10:00 20.8 17.5 82 0.0 24 6   98.15 26   LegendNANA
11:00 23.1 16.2 65 0.0 24 6   98.13 28   LegendNANA
12:00 24.4 18.0 67 0.0 25 7   98.08 30   LegendNANA
13:00 24.6 16.3 60 0.0 25 9   98.04 29   LegendNANA
14:00 25.9 16.9 58 0.0 24 6   98.01 31   LegendNANA
15:00 25.3 15.9 56 0.0 23 6   97.99 30   LegendNANA
16:00 25.1 16.3 58 0.0 24 6   97.96 30   LegendNANA
17:00 24.3 16.1 60 0.0 21 3   97.95 29   LegendNANA
18:00 23.6 16.6 65 0.0 23 6   97.96 29   LegendNANA
19:00 22.5 17.0 71 0.0 22 6   97.99 28   LegendNANA
20:00 18.5 17.9 96 2.0   0   97.98     LegendNANA
21:00 17.4 17.0 98 0.0 0 1   98.01     LegendNANA
22:00 16.5 16.2 98 0.0 12 1   98.05     LegendNANA
23:00 15.8 15.7 99 0.0 6 1   98.04     LegendNANA

Notes on Data Quality.

Legend

  • E = Estimated
  • M = Missing
  • NA = Not Available*
  • [empty] = Indicates an unobserved value
Date modified: